Location: Dana
(41.8364°N, 106.7042°W)
Time: 19:41:49
(UTC+00:00)

Injun/Solrad 3 - Pass Details

Date: 19 May 2026
Orbit: 867 x 989 km, 66.8° (Epoch: 6 June)

Event Time Altitude Azimuth Distance (km) Brightness Sun altitude
Rises 08:00:24 0° 318° (NW) 3,695 11.5 -27.0°
Reaches altitude 10° 08:03:23 10° 307° (NW) 2,750 10.6 -26.8°
Enters shadow 08:07:24 24° 270° (W) 1,903 9.3 -26.6°
Maximum altitude 08:08:31 26° 254° (WSW) 1,848 - -26.5°
Drops below altitude 10° 08:13:38 10° 201° (SSW) 2,731 - -26.3°
Sets 08:16:37 0° 188° (S) 3,665 - -26.1°
